Time,TemperatureF,DewpointF,PressureIn,WindDirection,WindDirectionDegrees,WindSpeedMPH,WindSpeedGustMPH,Humidity,HourlyPrecipIn,Conditions,Clouds,dailyrainin,SoftwareType,DateUTC
2013-03-26 00:00:00,40.8,25.0,30.21,NNE,12,5.0,7.0,53,0.00,,,0.00,meteohub,2013-03-26 05:00:00,
2013-03-26 00:05:00,40.6,24.8,30.21,WNW,302,1.0,5.0,53,0.00,,,0.00,meteohub,2013-03-26 05:05:00,
2013-03-26 00:10:00,40.5,24.6,30.21,WNW,289,3.0,5.0,53,0.00,,,0.00,meteohub,2013-03-26 05:10:00,
2013-03-26 00:15:00,40.5,25.2,30.21,West,280,1.0,8.0,54,0.00,,,0.00,meteohub,2013-03-26 05:15:00,
2013-03-26 00:21:00,40.5,25.2,30.21,WNW,285,0.0,8.0,54,0.00,,,0.00,meteohub,2013-03-26 05:21:00,
2013-03-26 00:26:00,40.3,25.0,30.21,NW,316,1.0,6.0,54,0.00,,,0.00,meteohub,2013-03-26 05:26:00,
2013-03-26 00:32:00,39.9,25.0,30.21,WNW,287,2.0,4.0,55,0.00,,,0.00,meteohub,2013-03-26 05:32:00,
2013-03-26 00:37:00,39.7,25.3,30.21,NW,314,0.0,4.0,56,0.00,,,0.00,meteohub,2013-03-26 05:37:00,
2013-03-26 00:42:00,39.7,25.3,30.21,WNW,295,0.0,3.0,56,0.00,,,0.00,meteohub,2013-03-26 05:42:00,
2013-03-26 00:47:00,39.6,25.2,30.21,NNE,16,0.0,5.0,56,0.00,,,0.00,meteohub,2013-03-26 05:47:00,
2013-03-26 00:52:00,39.4,25.3,30.21,West,273,2.0,5.0,57,0.00,,,0.00,meteohub,2013-03-26 05:52:00,
2013-03-26 00:57:00,39.0,25.2,30.21,NNW,328,1.0,4.0,57,0.00,,,0.00,meteohub,2013-03-26 05:57:00,
2013-03-26 01:03:00,39.0,25.2,30.21,WNW,290,1.0,4.0,57,0.00,,,0.00,meteohub,2013-03-26 06:03:00,
2013-03-26 01:08:00,38.8,25.0,30.21,WNW,283,1.0,4.0,57,0.00,,,0.00,meteohub,2013-03-26 06:08:00,
2013-03-26 01:13:00,38.8,25.0,30.21,WNW,299,0.0,4.0,57,0.00,,,0.00,meteohub,2013-03-26 06:13:00,
2013-03-26 01:18:00,38.8,25.0,30.21,West,270,0.0,5.0,57,0.00,,,0.00,meteohub,2013-03-26 06:18:00,
2013-03-26 01:23:00,38.7,25.2,30.21,WNW,290,2.0,5.0,58,0.00,,,0.00,meteohub,2013-03-26 06:23:00,
2013-03-26 01:29:00,38.5,25.0,30.21,WNW,291,1.0,3.0,58,0.00,,,0.00,meteohub,2013-03-26 06:29:00,
2013-03-26 01:34:00,38.3,25.2,30.21,WNW,291,0.0,3.0,59,0.00,,,0.00,meteohub,2013-03-26 06:34:00,
2013-03-26 01:39:00,38.1,25.0,30.20,WNW,291,1.0,3.0,59,0.00,,,0.00,meteohub,2013-03-26 06:39:00,
2013-03-26 01:44:00,37.9,25.3,30.20,WNW,301,0.0,3.0,60,0.00,,,0.00,meteohub,2013-03-26 06:44:00,
2013-03-26 01:49:00,37.8,25.2,30.20,WNW,303,2.0,3.0,60,0.00,,,0.00,meteohub,2013-03-26 06:49:00,
2013-03-26 01:54:00,37.8,25.5,30.20,WNW,296,1.0,3.0,61,0.00,,,0.00,meteohub,2013-03-26 06:54:00,
2013-03-26 01:59:00,37.6,25.3,30.20,WNW,297,1.0,3.0,61,0.00,,,0.00,meteohub,2013-03-26 06:59:00,
2013-03-26 02:05:00,37.4,25.2,30.20,WNW,289,1.0,3.0,61,0.00,,,0.00,meteohub,2013-03-26 07:05:00,
2013-03-26 02:10:00,37.2,25.7,30.20,WNW,291,0.0,5.0,63,0.00,,,0.00,meteohub,2013-03-26 07:10:00,
2013-03-26 02:15:00,37.0,25.7,30.20,WNW,288,4.0,5.0,63,0.00,,,0.00,meteohub,2013-03-26 07:15:00,
2013-03-26 02:20:00,37.0,25.7,30.20,West,278,0.0,6.0,63,0.00,,,0.00,meteohub,2013-03-26 07:20:00,
2013-03-26 02:26:00,37.0,25.7,30.20,WNW,289,0.0,6.0,63,0.00,,,0.00,meteohub,2013-03-26 07:26:00,
2013-03-26 02:31:00,36.9,25.5,30.21,West,280,2.0,6.0,63,0.00,,,0.00,meteohub,2013-03-26 07:31:00,
2013-03-26 02:37:00,36.9,25.9,30.21,WNW,289,2.0,4.0,64,0.00,,,0.00,meteohub,2013-03-26 07:37:00,
2013-03-26 02:42:00,36.9,25.9,30.21,WNW,299,1.0,4.0,64,0.00,,,0.00,meteohub,2013-03-26 07:42:00,
2013-03-26 02:47:00,36.7,25.7,30.21,WNW,289,2.0,4.0,64,0.00,,,0.00,meteohub,2013-03-26 07:47:00,
2013-03-26 02:53:00,36.7,25.7,30.21,WNW,297,1.0,7.0,64,0.00,,,0.00,meteohub,2013-03-26 07:53:00,
2013-03-26 02:58:00,36.5,25.5,30.21,WNW,293,3.0,7.0,64,0.00,,,0.00,meteohub,2013-03-26 07:58:00,
2013-03-26 03:03:00,36.3,25.7,30.21,WNW,288,0.0,4.0,65,0.00,,,0.00,meteohub,2013-03-26 08:03:00,
2013-03-26 03:08:00,36.1,25.5,30.21,WNW,293,1.0,4.0,65,0.00,,,0.00,meteohub,2013-03-26 08:08:00,
2013-03-26 03:13:00,36.1,25.9,30.20,WNW,293,0.0,4.0,66,0.00,,,0.00,meteohub,2013-03-26 08:13:00,
2013-03-26 03:18:00,36.0,25.7,30.20,WNW,293,0.0,4.0,66,0.00,,,0.00,meteohub,2013-03-26 08:18:00,
2013-03-26 03:23:00,35.8,25.9,30.21,WNW,293,1.0,3.0,67,0.00,,,0.00,meteohub,2013-03-26 08:23:00,
2013-03-26 03:29:00,35.4,25.9,30.21,WNW,293,0.0,3.0,68,0.00,,,0.00,meteohub,2013-03-26 08:29:00,
2013-03-26 03:34:00,35.1,25.5,30.21,West,275,2.0,3.0,68,0.00,,,0.00,meteohub,2013-03-26 08:34:00,
2013-03-26 03:39:00,34.9,25.7,30.21,West,275,1.0,3.0,69,0.00,,,0.00,meteohub,2013-03-26 08:39:00,
2013-03-26 03:44:00,34.5,25.3,30.21,West,275,1.0,3.0,69,0.00,,,0.00,meteohub,2013-03-26 08:44:00,
2013-03-26 03:50:00,34.3,25.2,30.21,West,275,1.0,3.0,69,0.00,,,0.00,meteohub,2013-03-26 08:50:00,
2013-03-26 03:55:00,34.3,25.5,30.21,West,275,0.0,2.0,70,0.00,,,0.00,meteohub,2013-03-26 08:55:00,
2013-03-26 04:00:00,34.2,25.7,30.21,West,275,0.0,2.0,71,0.00,,,0.00,meteohub,2013-03-26 09:00:00,
2013-03-26 04:05:00,34.0,25.5,30.21,West,275,0.0,2.0,71,0.00,,,0.00,meteohub,2013-03-26 09:05:00,
2013-03-26 04:10:00,33.6,25.9,30.22,West,275,2.0,2.0,73,0.00,,,0.00,meteohub,2013-03-26 09:10:00,
2013-03-26 04:15:00,33.3,25.9,30.21,West,275,2.0,2.0,74,0.00,,,0.00,meteohub,2013-03-26 09:15:00,
2013-03-26 04:20:00,33.3,26.2,30.22,West,275,0.0,2.0,75,0.00,,,0.00,meteohub,2013-03-26 09:20:00,
2013-03-26 04:25:00,32.9,25.9,30.22,West,275,1.0,2.0,75,0.00,,,0.00,meteohub,2013-03-26 09:25:00,
2013-03-26 04:30:00,32.7,26.1,30.22,West,275,1.0,3.0,76,0.00,,,0.00,meteohub,2013-03-26 09:30:00,
2013-03-26 04:36:00,32.7,26.2,30.22,West,274,1.0,3.0,77,0.00,,,0.00,meteohub,2013-03-26 09:36:00,
2013-03-26 04:41:00,32.5,26.4,30.22,West,274,1.0,3.0,78,0.00,,,0.00,meteohub,2013-03-26 09:41:00,
2013-03-26 04:46:00,32.4,26.2,30.22,West,274,2.0,3.0,78,0.00,,,0.00,meteohub,2013-03-26 09:46:00,
2013-03-26 04:52:00,32.2,26.4,30.22,West,270,2.0,3.0,79,0.00,,,0.00,meteohub,2013-03-26 09:52:00,
2013-03-26 04:57:00,32.2,26.4,30.22,West,278,1.0,3.0,79,0.00,,,0.00,meteohub,2013-03-26 09:57:00,
2013-03-26 05:02:00,32.2,26.8,30.22,West,278,1.0,3.0,80,0.00,,,0.00,meteohub,2013-03-26 10:02:00,
2013-03-26 05:07:00,32.2,26.8,30.22,WNW,291,1.0,3.0,80,0.00,,,0.00,meteohub,2013-03-26 10:07:00,
2013-03-26 05:12:00,32.2,26.4,30.22,WNW,290,1.0,3.0,79,0.00,,,0.00,meteohub,2013-03-26 10:12:00,
2013-03-26 05:17:00,32.2,26.4,30.23,WNW,290,1.0,3.0,79,0.00,,,0.00,meteohub,2013-03-26 10:17:00,
2013-03-26 05:22:00,32.0,26.6,30.23,WNW,291,1.0,3.0,80,0.00,,,0.00,meteohub,2013-03-26 10:22:00,
2013-03-26 05:28:00,32.0,26.6,30.23,WNW,289,2.0,3.0,80,0.00,,,0.00,meteohub,2013-03-26 10:28:00,
2013-03-26 05:33:00,31.8,26.4,30.23,WNW,289,0.0,2.0,80,0.00,,,0.00,meteohub,2013-03-26 10:33:00,
2013-03-26 05:38:00,31.8,26.4,30.23,WNW,289,0.0,3.0,80,0.00,,,0.00,meteohub,2013-03-26 10:38:00,
2013-03-26 05:43:00,31.8,26.4,30.24,West,264,2.0,3.0,80,0.00,,,0.00,meteohub,2013-03-26 10:43:00,
2013-03-26 05:48:00,31.6,26.2,30.24,West,264,2.0,3.0,80,0.00,,,0.00,meteohub,2013-03-26 10:48:00,
2013-03-26 05:54:00,31.6,26.4,30.24,West,264,2.0,3.0,81,0.00,,,0.00,meteohub,2013-03-26 10:54:00,
2013-03-26 05:59:00,31.6,26.4,30.24,West,264,1.0,3.0,81,0.00,,,0.00,meteohub,2013-03-26 10:59:00,
2013-03-26 06:05:00,31.5,26.2,30.25,West,264,0.0,3.0,81,0.00,,,0.00,meteohub,2013-03-26 11:05:00,
2013-03-26 06:10:00,31.5,26.6,30.25,West,264,0.0,3.0,82,0.00,,,0.00,meteohub,2013-03-26 11:10:00,
2013-03-26 06:15:00,31.3,26.4,30.25,West,264,1.0,3.0,82,0.00,,,0.00,meteohub,2013-03-26 11:15:00,
2013-03-26 06:20:00,31.1,26.6,30.25,West,278,2.0,2.0,83,0.00,,,0.00,meteohub,2013-03-26 11:20:00,
2013-03-26 06:25:00,31.1,26.6,30.25,West,281,1.0,4.0,83,0.00,,,0.00,meteohub,2013-03-26 11:25:00,
2013-03-26 06:31:00,31.1,26.6,30.25,West,281,3.0,4.0,83,0.00,,,0.00,meteohub,2013-03-26 11:31:00,
2013-03-26 06:36:00,31.3,26.4,30.25,WNW,285,3.0,4.0,82,0.00,,,0.00,meteohub,2013-03-26 11:36:00,
2013-03-26 06:41:00,31.3,26.4,30.26,WNW,294,4.0,4.0,82,0.00,,,0.00,meteohub,2013-03-26 11:41:00,
2013-03-26 06:46:00,31.3,26.4,30.26,WNW,283,2.0,4.0,82,0.00,,,0.00,meteohub,2013-03-26 11:46:00,
2013-03-26 06:51:00,31.1,26.2,30.26,West,278,4.0,5.0,82,0.00,,,0.00,meteohub,2013-03-26 11:51:00,
2013-03-26 06:56:00,31.3,26.4,30.27,West,278,1.0,5.0,82,0.00,,,0.00,meteohub,2013-03-26 11:56:00,
2013-03-26 07:02:00,31.3,26.4,30.27,WNW,287,2.0,5.0,82,0.00,,,0.00,meteohub,2013-03-26 12:02:00,
2013-03-26 07:07:00,31.5,26.2,30.27,WNW,282,2.0,5.0,81,0.00,,,0.00,meteohub,2013-03-26 12:07:00,
2013-03-26 07:12:00,31.6,26.4,30.27,West,272,0.0,5.0,81,0.00,,,0.00,meteohub,2013-03-26 12:12:00,
2013-03-26 07:17:00,31.8,26.6,30.27,West,280,1.0,4.0,81,0.00,,,0.00,meteohub,2013-03-26 12:17:00,
2013-03-26 07:22:00,32.0,26.8,30.27,West,274,3.0,5.0,81,0.00,,,0.00,meteohub,2013-03-26 12:22:00,
2013-03-26 07:27:00,32.4,27.0,30.27,WNW,283,2.0,5.0,80,0.00,,,0.00,meteohub,2013-03-26 12:27:00,
2013-03-26 07:33:00,32.5,26.8,30.27,WNW,287,4.0,5.0,79,0.00,,,0.00,meteohub,2013-03-26 12:33:00,
2013-03-26 07:38:00,32.9,27.1,30.28,NNW,328,2.0,7.0,79,0.00,,,0.00,meteohub,2013-03-26 12:38:00,
2013-03-26 07:43:00,33.1,27.0,30.28,WNW,292,4.0,7.0,78,0.00,,,0.00,meteohub,2013-03-26 12:43:00,
2013-03-26 07:48:00,33.4,26.8,30.28,WNW,285,7.0,7.0,76,0.00,,,0.00,meteohub,2013-03-26 12:48:00,
2013-03-26 07:53:00,33.8,27.0,30.28,West,268,3.0,8.0,76,0.00,,,0.00,meteohub,2013-03-26 12:53:00,
2013-03-26 07:59:00,34.2,27.3,30.28,West,272,4.0,8.0,76,0.00,,,0.00,meteohub,2013-03-26 12:59:00,
2013-03-26 08:04:00,34.5,27.1,30.29,West,280,3.0,8.0,74,0.00,,,0.00,meteohub,2013-03-26 13:04:00,
2013-03-26 08:09:00,34.9,27.5,30.29,NW,309,7.0,8.0,74,0.00,,,0.00,meteohub,2013-03-26 13:09:00,
2013-03-26 08:14:00,35.4,27.7,30.29,NW,312,1.0,8.0,73,0.00,,,0.00,meteohub,2013-03-26 13:14:00,
2013-03-26 08:20:00,36.0,28.2,30.29,NW,326,1.0,9.0,73,0.00,,,0.00,meteohub,2013-03-26 13:20:00,
2013-03-26 08:25:00,36.7,28.6,30.29,WSW,258,5.0,9.0,72,0.00,,,0.00,meteohub,2013-03-26 13:25:00,
2013-03-26 08:30:00,36.9,27.7,30.30,NW,313,3.0,12.0,69,0.00,,,0.00,meteohub,2013-03-26 13:30:00,
2013-03-26 08:35:00,37.0,27.1,30.29,WNW,303,4.0,12.0,67,0.00,,,0.00,meteohub,2013-03-26 13:35:00,
2013-03-26 08:41:00,37.6,27.3,30.30,WNW,293,5.0,12.0,66,0.00,,,0.00,meteohub,2013-03-26 13:41:00,
2013-03-26 08:46:00,37.6,27.0,30.29,North,354,3.0,11.0,65,0.00,,,0.00,meteohub,2013-03-26 13:46:00,
2013-03-26 08:52:00,38.1,27.9,30.29,WNW,285,7.0,12.0,66,0.00,,,0.00,meteohub,2013-03-26 13:52:00,
2013-03-26 08:57:00,38.5,27.7,30.29,North,350,6.0,12.0,65,0.00,,,0.00,meteohub,2013-03-26 13:57:00,
2013-03-26 09:02:00,38.7,27.1,30.30,WNW,289,2.0,10.0,63,0.00,,,0.00,meteohub,2013-03-26 14:02:00,
2013-03-26 09:07:00,38.8,27.3,30.29,North,10,2.0,10.0,63,0.00,,,0.00,meteohub,2013-03-26 14:07:00,
2013-03-26 09:12:00,39.7,27.9,30.30,SW,218,5.0,19.0,62,0.00,,,0.00,meteohub,2013-03-26 14:12:00,
2013-03-26 09:17:00,39.9,27.1,30.30,SW,231,2.0,19.0,60,0.00,,,0.00,meteohub,2013-03-26 14:17:00,
2013-03-26 09:22:00,39.9,27.1,30.29,NNE,17,2.0,19.0,60,0.00,,,0.00,meteohub,2013-03-26 14:22:00,
2013-03-26 09:28:00,40.6,26.6,30.29,West,264,3.0,9.0,57,0.00,,,0.00,meteohub,2013-03-26 14:28:00,
2013-03-26 09:33:00,41.2,27.5,30.30,NNW,330,2.0,9.0,58,0.00,,,0.00,meteohub,2013-03-26 14:33:00,
2013-03-26 09:38:00,41.4,27.7,30.30,NNE,16,2.0,8.0,58,0.00,,,0.00,meteohub,2013-03-26 14:38:00,
2013-03-26 09:43:00,41.4,26.8,30.30,WNW,284,4.0,8.0,56,0.00,,,0.00,meteohub,2013-03-26 14:43:00,
2013-03-26 09:48:00,41.2,26.6,30.30,WNW,301,6.0,12.0,56,0.00,,,0.00,meteohub,2013-03-26 14:48:00,
2013-03-26 09:54:00,40.6,26.2,30.30,NW,318,2.0,15.0,56,0.00,,,0.00,meteohub,2013-03-26 14:54:00,
2013-03-26 09:59:00,40.8,25.9,30.30,WNW,284,7.0,15.0,55,0.00,,,0.00,meteohub,2013-03-26 14:59:00,
2013-03-26 10:04:00,41.4,25.9,30.30,WNW,299,5.0,15.0,54,0.00,,,0.00,meteohub,2013-03-26 15:04:00,
2013-03-26 10:10:00,41.5,26.6,30.30,NNW,345,5.0,17.0,55,0.00,,,0.00,meteohub,2013-03-26 15:10:00,
2013-03-26 10:15:00,42.4,27.5,30.30,NW,306,4.0,17.0,55,0.00,,,0.00,meteohub,2013-03-26 15:15:00,
2013-03-26 10:20:00,42.6,26.6,30.30,West,272,2.0,10.0,53,0.00,,,0.00,meteohub,2013-03-26 15:20:00,
2013-03-26 10:25:00,42.3,25.9,30.30,NW,318,3.0,10.0,52,0.00,,,0.00,meteohub,2013-03-26 15:25:00,
2013-03-26 10:31:00,42.4,27.0,30.30,WNW,297,1.0,10.0,54,0.00,,,0.00,meteohub,2013-03-26 15:31:00,
2013-03-26 10:36:00,43.0,26.1,30.30,West,278,10.0,10.0,51,0.00,,,0.00,meteohub,2013-03-26 15:36:00,
2013-03-26 10:41:00,42.4,25.5,30.30,NW,314,4.0,13.0,51,0.00,,,0.00,meteohub,2013-03-26 15:41:00,
2013-03-26 10:47:00,43.0,26.1,30.30,NW,307,3.0,15.0,51,0.00,,,0.00,meteohub,2013-03-26 15:47:00,
2013-03-26 10:52:00,43.5,27.1,30.30,NW,310,2.0,15.0,52,0.00,,,0.00,meteohub,2013-03-26 15:52:00,
2013-03-26 10:57:00,43.5,26.1,30.30,North,354,4.0,14.0,50,0.00,,,0.00,meteohub,2013-03-26 15:57:00,
2013-03-26 11:02:00,43.9,25.5,30.29,NNW,343,5.0,14.0,48,0.00,,,0.00,meteohub,2013-03-26 16:02:00,
2013-03-26 11:07:00,44.2,25.3,30.30,WNW,286,6.0,16.0,47,0.00,,,0.00,meteohub,2013-03-26 16:07:00,
2013-03-26 11:12:00,44.2,25.3,30.30,NW,308,8.0,16.0,47,0.00,,,0.00,meteohub,2013-03-26 16:12:00,
2013-03-26 11:17:00,44.6,25.7,30.29,NW,306,2.0,16.0,47,0.00,,,0.00,meteohub,2013-03-26 16:17:00,
2013-03-26 11:23:00,45.3,26.8,30.29,NW,315,3.0,13.0,48,0.00,,,0.00,meteohub,2013-03-26 16:23:00,
2013-03-26 11:28:00,45.5,25.3,30.29,West,272,7.0,13.0,45,0.00,,,0.00,meteohub,2013-03-26 16:28:00,
2013-03-26 11:33:00,44.2,24.8,30.28,WNW,285,13.0,16.0,46,0.00,,,0.00,meteohub,2013-03-26 16:33:00,
2013-03-26 11:38:00,44.8,25.7,30.29,WNW,295,3.0,19.0,47,0.00,,,0.00,meteohub,2013-03-26 16:38:00,
2013-03-26 11:43:00,45.3,25.2,30.29,NNE,33,4.0,19.0,45,0.00,,,0.00,meteohub,2013-03-26 16:43:00,
2013-03-26 11:49:00,45.9,25.7,30.29,West,269,5.0,19.0,45,0.00,,,0.00,meteohub,2013-03-26 16:49:00,
2013-03-26 11:54:00,45.9,25.7,30.29,NW,315,2.0,18.0,45,0.00,,,0.00,meteohub,2013-03-26 16:54:00,
2013-03-26 11:59:00,46.6,26.4,30.28,West,268,10.0,18.0,45,0.00,,,0.00,meteohub,2013-03-26 16:59:00,
2013-03-26 12:04:00,46.2,26.1,30.28,WNW,299,8.0,18.0,45,0.00,,,0.00,meteohub,2013-03-26 17:04:00,
2013-03-26 12:09:00,46.4,26.2,30.28,WNW,291,13.0,16.0,45,0.00,,,0.00,meteohub,2013-03-26 17:09:00,
2013-03-26 12:14:00,46.9,26.2,30.28,NNW,336,1.0,18.0,44,0.00,,,0.00,meteohub,2013-03-26 17:14:00,
2013-03-26 12:19:00,47.5,25.5,30.28,WNW,301,2.0,18.0,42,0.00,,,0.00,meteohub,2013-03-26 17:19:00,
2013-03-26 12:25:00,47.7,26.2,30.28,NW,314,3.0,18.0,43,0.00,,,0.00,meteohub,2013-03-26 17:25:00,
2013-03-26 12:30:00,48.4,27.5,30.28,NW,326,4.0,15.0,44,0.00,,,0.00,meteohub,2013-03-26 17:30:00,
2013-03-26 12:35:00,48.0,27.1,30.27,NNW,340,3.0,15.0,44,0.00,,,0.00,meteohub,2013-03-26 17:35:00,
2013-03-26 12:40:00,48.7,27.3,30.27,West,272,5.0,10.0,43,0.00,,,0.00,meteohub,2013-03-26 17:40:00,
2013-03-26 12:45:00,49.5,27.9,30.27,NW,312,3.0,11.0,43,0.00,,,0.00,meteohub,2013-03-26 17:45:00,
2013-03-26 12:51:00,49.3,27.7,30.27,North,354,0.0,11.0,43,0.00,,,0.00,meteohub,2013-03-26 17:51:00,
2013-03-26 12:57:00,48.9,26.8,30.27,WNW,285,5.0,11.0,42,0.00,,,0.00,meteohub,2013-03-26 17:57:00,
2013-03-26 13:02:00,49.1,26.4,30.27,North,354,2.0,10.0,41,0.00,,,0.00,meteohub,2013-03-26 18:02:00,
2013-03-26 13:07:00,48.9,26.8,30.27,WNW,282,10.0,14.0,42,0.00,,,0.00,meteohub,2013-03-26 18:07:00,
2013-03-26 13:12:00,48.9,27.3,30.27,West,266,3.0,14.0,43,0.00,,,0.00,meteohub,2013-03-26 18:12:00,
2013-03-26 13:17:00,49.5,26.8,30.27,NW,310,2.0,17.0,41,0.00,,,0.00,meteohub,2013-03-26 18:17:00,
2013-03-26 13:23:00,48.6,26.4,30.27,WNW,290,8.0,20.0,42,0.00,,,0.00,meteohub,2013-03-26 18:23:00,
2013-03-26 13:28:00,48.7,26.6,30.26,WNW,301,9.0,20.0,42,0.00,,,0.00,meteohub,2013-03-26 18:28:00,
2013-03-26 13:33:00,49.6,27.5,30.27,WNW,287,3.0,20.0,42,0.00,,,0.00,meteohub,2013-03-26 18:33:00,
2013-03-26 13:38:00,50.2,26.8,30.26,West,276,11.0,20.0,40,0.00,,,0.00,meteohub,2013-03-26 18:38:00,
2013-03-26 13:43:00,50.4,27.0,30.27,NW,308,4.0,16.0,40,0.00,,,0.00,meteohub,2013-03-26 18:43:00,
2013-03-26 13:49:00,50.5,27.7,30.26,NW,304,3.0,17.0,41,0.00,,,0.00,meteohub,2013-03-26 18:49:00,
2013-03-26 13:54:00,50.9,27.5,30.26,NW,312,3.0,17.0,40,0.00,,,0.00,meteohub,2013-03-26 18:54:00,
2013-03-26 13:59:00,50.5,27.1,30.26,WNW,291,12.0,15.0,40,0.00,,,0.00,meteohub,2013-03-26 18:59:00,
2013-03-26 14:04:00,49.8,25.9,30.26,West,268,13.0,15.0,39,0.00,,,0.00,meteohub,2013-03-26 19:04:00,
2013-03-26 14:09:00,49.5,27.3,30.26,NW,310,3.0,16.0,42,0.00,,,0.00,meteohub,2013-03-26 19:09:00,
2013-03-26 14:14:00,50.7,28.4,30.25,WNW,284,5.0,16.0,42,0.00,,,0.00,meteohub,2013-03-26 19:14:00,
2013-03-26 14:20:00,50.4,26.4,30.25,WNW,283,8.0,16.0,39,0.00,,,0.00,meteohub,2013-03-26 19:20:00,
2013-03-26 14:25:00,50.5,27.1,30.25,NW,306,2.0,16.0,40,0.00,,,0.00,meteohub,2013-03-26 19:25:00,
2013-03-26 14:30:00,51.4,27.9,30.25,WNW,284,7.0,16.0,40,0.00,,,0.00,meteohub,2013-03-26 19:30:00,
2013-03-26 14:35:00,51.1,27.0,30.25,WNW,294,3.0,17.0,39,0.00,,,0.00,meteohub,2013-03-26 19:35:00,
2013-03-26 14:40:00,51.1,27.0,30.25,NW,316,2.0,17.0,39,0.00,,,0.00,meteohub,2013-03-26 19:40:00,
2013-03-26 14:46:00,51.6,26.8,30.25,WNW,297,2.0,17.0,38,0.00,,,0.00,meteohub,2013-03-26 19:46:00,
2013-03-26 14:51:00,52.2,27.9,30.25,WNW,289,6.0,12.0,39,0.00,,,0.00,meteohub,2013-03-26 19:51:00,
2013-03-26 14:56:00,52.0,27.1,30.24,NW,309,5.0,18.0,38,0.00,,,0.00,meteohub,2013-03-26 19:56:00,
2013-03-26 15:01:00,52.0,26.6,30.24,West,281,7.0,18.0,37,0.00,,,0.00,meteohub,2013-03-26 20:01:00,
2013-03-26 15:07:00,52.2,27.9,30.24,West,278,6.0,18.0,39,0.00,,,0.00,meteohub,2013-03-26 20:07:00,
2013-03-26 15:12:00,52.3,27.5,30.24,NNW,329,2.0,17.0,38,0.00,,,0.00,meteohub,2013-03-26 20:12:00,
2013-03-26 15:17:00,51.8,26.4,30.24,WNW,296,13.0,17.0,37,0.00,,,0.00,meteohub,2013-03-26 20:17:00,
2013-03-26 15:22:00,51.4,27.3,30.24,SE,137,2.0,19.0,39,0.00,,,0.00,meteohub,2013-03-26 20:22:00,
2013-03-26 15:27:00,52.2,27.3,30.24,NW,321,4.0,19.0,38,0.00,,,0.00,meteohub,2013-03-26 20:27:00,
2013-03-26 15:32:00,52.2,27.3,30.25,WNW,285,4.0,19.0,38,0.00,,,0.00,meteohub,2013-03-26 20:32:00,
2013-03-26 15:37:00,52.3,28.0,30.24,WNW,303,1.0,15.0,39,0.00,,,0.00,meteohub,2013-03-26 20:37:00,
2013-03-26 15:42:00,53.1,27.5,30.24,NNE,31,4.0,15.0,37,0.00,,,0.00,meteohub,2013-03-26 20:42:00,
2013-03-26 15:47:00,53.2,27.7,30.24,NE,49,3.0,12.0,37,0.00,,,0.00,meteohub,2013-03-26 20:47:00,
2013-03-26 15:53:00,53.1,27.5,30.24,West,279,3.0,9.0,37,0.00,,,0.00,meteohub,2013-03-26 20:53:00,
2013-03-26 15:58:00,53.1,27.5,30.24,NW,306,2.0,9.0,37,0.00,,,0.00,meteohub,2013-03-26 20:58:00,
2013-03-26 16:03:00,53.4,27.9,30.24,WSW,253,6.0,12.0,37,0.00,,,0.00,meteohub,2013-03-26 21:03:00,
2013-03-26 16:09:00,53.8,27.5,30.24,NW,305,4.0,12.0,36,0.00,,,0.00,meteohub,2013-03-26 21:09:00,
2013-03-26 16:14:00,52.7,26.4,30.24,WNW,284,11.0,13.0,36,0.00,,,0.00,meteohub,2013-03-26 21:14:00,
2013-03-26 16:19:00,52.2,27.3,30.24,NE,45,2.0,13.0,38,0.00,,,0.00,meteohub,2013-03-26 21:19:00,
2013-03-26 16:24:00,52.5,27.7,30.24,West,269,5.0,14.0,38,0.00,,,0.00,meteohub,2013-03-26 21:24:00,
2013-03-26 16:29:00,52.2,27.9,30.24,NNW,331,3.0,14.0,39,0.00,,,0.00,meteohub,2013-03-26 21:29:00,
2013-03-26 16:34:00,52.9,28.6,30.24,NNE,29,2.0,12.0,39,0.00,,,0.00,meteohub,2013-03-26 21:34:00,
2013-03-26 16:40:00,53.1,27.5,30.24,West,271,5.0,12.0,37,0.00,,,0.00,meteohub,2013-03-26 21:40:00,
2013-03-26 16:45:00,53.1,28.0,30.24,NE,41,1.0,12.0,38,0.00,,,0.00,meteohub,2013-03-26 21:45:00,
2013-03-26 16:50:00,53.4,27.9,30.24,WNW,303,3.0,11.0,37,0.00,,,0.00,meteohub,2013-03-26 21:50:00,
2013-03-26 16:55:00,52.9,28.0,30.24,NE,34,3.0,11.0,38,0.00,,,0.00,meteohub,2013-03-26 21:55:00,
2013-03-26 17:00:00,52.9,28.6,30.24,WNW,293,4.0,12.0,39,0.00,,,0.00,meteohub,2013-03-26 22:00:00,
2013-03-26 17:05:00,52.5,27.7,30.24,NW,309,3.0,12.0,38,0.00,,,0.00,meteohub,2013-03-26 22:05:00,
2013-03-26 17:11:00,52.5,27.7,30.25,North,359,1.0,11.0,38,0.00,,,0.00,meteohub,2013-03-26 22:11:00,
2013-03-26 17:16:00,52.9,28.6,30.25,NW,311,1.0,11.0,39,0.00,,,0.00,meteohub,2013-03-26 22:16:00,
2013-03-26 17:21:00,53.1,28.0,30.25,NNW,327,0.0,9.0,38,0.00,,,0.00,meteohub,2013-03-26 22:21:00,
2013-03-26 17:27:00,51.6,27.5,30.25,NNW,327,2.0,20.0,39,0.00,,,0.00,meteohub,2013-03-26 22:27:00,
2013-03-26 17:32:00,52.0,27.9,30.25,North,354,0.0,20.0,39,0.00,,,0.00,meteohub,2013-03-26 22:32:00,
2013-03-26 17:37:00,51.8,27.7,30.26,ENE,59,3.0,20.0,39,0.00,,,0.00,meteohub,2013-03-26 22:37:00,
2013-03-26 17:42:00,51.6,28.0,30.26,WNW,298,2.0,14.0,40,0.00,,,0.00,meteohub,2013-03-26 22:42:00,
2013-03-26 17:48:00,51.4,27.3,30.26,WNW,299,5.0,14.0,39,0.00,,,0.00,meteohub,2013-03-26 22:48:00,
2013-03-26 17:53:00,50.9,26.8,30.26,NNW,338,4.0,11.0,39,0.00,,,0.00,meteohub,2013-03-26 22:53:00,
2013-03-26 17:58:00,50.7,27.9,30.26,North,354,4.0,12.0,41,0.00,,,0.00,meteohub,2013-03-26 22:58:00,
2013-03-26 18:03:00,50.9,28.0,30.27,North,354,3.0,12.0,41,0.00,,,0.00,meteohub,2013-03-26 23:03:00,
2013-03-26 18:08:00,50.9,28.0,30.27,NE,37,0.0,12.0,41,0.00,,,0.00,meteohub,2013-03-26 23:08:00,
2013-03-26 18:14:00,50.7,27.9,30.27,NE,44,2.0,6.0,41,0.00,,,0.00,meteohub,2013-03-26 23:14:00,
2013-03-26 18:19:00,50.5,28.2,30.27,West,276,1.0,7.0,42,0.00,,,0.00,meteohub,2013-03-26 23:19:00,
2013-03-26 18:24:00,50.4,28.2,30.27,NW,306,1.0,7.0,42,0.00,,,0.00,meteohub,2013-03-26 23:24:00,
2013-03-26 18:29:00,49.8,28.2,30.27,WNW,289,7.0,7.0,43,0.00,,,0.00,meteohub,2013-03-26 23:29:00,
2013-03-26 18:35:00,49.3,27.7,30.28,NE,41,0.0,7.0,43,0.00,,,0.00,meteohub,2013-03-26 23:35:00,
2013-03-26 18:40:00,48.7,27.9,30.28,NNE,28,0.0,7.0,44,0.00,,,0.00,meteohub,2013-03-26 23:40:00,
2013-03-26 18:45:00,48.2,27.9,30.28,North,359,5.0,7.0,45,0.00,,,0.00,meteohub,2013-03-26 23:45:00,
2013-03-26 18:50:00,47.7,27.3,30.28,WNW,302,1.0,6.0,45,0.00,,,0.00,meteohub,2013-03-26 23:50:00,
2013-03-26 18:55:00,47.3,27.5,30.28,WSW,256,3.0,7.0,46,0.00,,,0.00,meteohub,2013-03-26 23:55:00,
2013-03-26 19:00:00,46.9,27.7,30.29,West,278,1.0,7.0,47,0.00,,,0.00,meteohub,2013-03-27 00:00:00,
2013-03-26 19:05:00,46.6,27.5,30.29,West,261,0.0,5.0,47,0.00,,,0.00,meteohub,2013-03-27 00:05:00,
2013-03-26 19:12:00,46.0,27.9,30.29,NW,324,0.0,5.0,49,0.00,,,0.00,meteohub,2013-03-27 00:12:00,
2013-03-26 19:17:00,45.9,27.9,30.29,West,271,2.0,5.0,49,0.00,,,0.00,meteohub,2013-03-27 00:17:00,
2013-03-26 19:22:00,45.7,28.6,30.29,West,280,1.0,5.0,51,0.00,,,0.00,meteohub,2013-03-27 00:22:00,
2013-03-26 19:27:00,45.3,28.2,30.30,West,264,0.0,3.0,51,0.00,,,0.00,meteohub,2013-03-27 00:27:00,
2013-03-26 19:32:00,45.1,28.6,30.30,NNW,343,1.0,3.0,52,0.00,,,0.00,meteohub,2013-03-27 00:32:00,
2013-03-26 19:37:00,45.0,28.4,30.30,SW,228,0.0,3.0,52,0.00,,,0.00,meteohub,2013-03-27 00:37:00,
2013-03-26 19:42:00,44.8,28.8,30.30,SW,228,0.0,5.0,53,0.00,,,0.00,meteohub,2013-03-27 00:42:00,
2013-03-26 19:47:00,44.4,28.8,30.30,SW,233,0.0,5.0,54,0.00,,,0.00,meteohub,2013-03-27 00:47:00,
2013-03-26 19:52:00,44.2,28.6,30.30,NW,310,0.0,2.0,54,0.00,,,0.00,meteohub,2013-03-27 00:52:00,
2013-03-26 19:58:00,43.9,28.8,30.30,NW,310,1.0,3.0,55,0.00,,,0.00,meteohub,2013-03-27 00:58:00,
2013-03-26 20:03:00,43.9,29.1,30.31,ENE,74,0.0,4.0,56,0.00,,,0.00,meteohub,2013-03-27 01:03:00,
2013-03-26 20:08:00,43.5,29.3,30.31,ENE,74,0.0,4.0,57,0.00,,,0.00,meteohub,2013-03-27 01:08:00,
2013-03-26 20:13:00,43.3,29.1,30.31,ENE,74,0.0,4.0,57,0.00,,,0.00,meteohub,2013-03-27 01:13:00,
2013-03-26 20:18:00,43.2,29.3,30.31,ENE,58,0.0,2.0,58,0.00,,,0.00,meteohub,2013-03-27 01:18:00,
2013-03-26 20:24:00,42.8,29.1,30.31,ENE,58,0.0,2.0,58,0.00,,,0.00,meteohub,2013-03-27 01:24:00,
2013-03-26 20:29:00,42.6,29.3,30.32,ENE,58,0.0,2.0,59,0.00,,,0.00,meteohub,2013-03-27 01:29:00,
2013-03-26 20:34:00,42.4,29.5,30.32,ENE,58,0.0,2.0,60,0.00,,,0.00,meteohub,2013-03-27 01:34:00,
2013-03-26 20:39:00,42.3,29.3,30.32,ENE,58,0.0,1.0,60,0.00,,,0.00,meteohub,2013-03-27 01:39:00,
2013-03-26 20:44:00,42.1,29.1,30.32,NNE,20,0.0,1.0,60,0.00,,,0.00,meteohub,2013-03-27 01:44:00,
2013-03-26 20:50:00,41.7,29.3,30.32,NNE,20,0.0,1.0,61,0.00,,,0.00,meteohub,2013-03-27 01:50:00,
2013-03-26 20:55:00,41.5,29.1,30.32,NNE,21,0.0,3.0,61,0.00,,,0.00,meteohub,2013-03-27 01:55:00,
2013-03-26 21:00:00,41.4,28.9,30.33,NNE,21,0.0,3.0,61,0.00,,,0.00,meteohub,2013-03-27 02:00:00,
2013-03-26 21:05:00,41.2,29.1,30.33,NNE,21,0.0,1.0,62,0.00,,,0.00,meteohub,2013-03-27 02:05:00,
2013-03-26 21:11:00,41.2,29.1,30.33,NNE,21,0.0,1.0,62,0.00,,,0.00,meteohub,2013-03-27 02:11:00,
2013-03-26 21:16:00,40.8,29.1,30.33,NNE,21,0.0,1.0,63,0.00,,,0.00,meteohub,2013-03-27 02:16:00,
2013-03-26 21:21:00,40.6,29.5,30.33,NNE,21,0.0,1.0,64,0.00,,,0.00,meteohub,2013-03-27 02:21:00,
2013-03-26 21:26:00,40.6,29.5,30.34,NNE,21,0.0,1.0,64,0.00,,,0.00,meteohub,2013-03-27 02:26:00,
2013-03-26 21:32:00,40.5,29.7,30.34,NNE,18,0.0,0.0,65,0.00,,,0.00,meteohub,2013-03-27 02:32:00,
2013-03-26 21:37:00,40.5,29.7,30.35,NNE,18,0.0,1.0,65,0.00,,,0.00,meteohub,2013-03-27 02:37:00,
2013-03-26 21:42:00,40.5,29.7,30.35,NNE,18,0.0,1.0,65,0.00,,,0.00,meteohub,2013-03-27 02:42:00,
2013-03-26 21:47:00,40.3,29.8,30.35,NNE,18,0.0,1.0,66,0.00,,,0.00,meteohub,2013-03-27 02:47:00,
2013-03-26 21:52:00,40.3,29.8,30.35,NNE,18,0.0,2.0,66,0.00,,,0.00,meteohub,2013-03-27 02:52:00,
2013-03-26 21:57:00,39.9,29.5,30.35,NNE,18,0.0,2.0,66,0.00,,,0.00,meteohub,2013-03-27 02:57:00,
2013-03-26 22:02:00,39.7,29.3,30.35,NNE,18,0.0,1.0,66,0.00,,,0.00,meteohub,2013-03-27 03:02:00,
2013-03-26 22:07:00,39.7,29.3,30.35,North,4,1.0,1.0,66,0.00,,,0.00,meteohub,2013-03-27 03:07:00,
2013-03-26 22:12:00,39.6,29.5,30.35,North,8,0.0,2.0,67,0.00,,,0.00,meteohub,2013-03-27 03:12:00,
2013-03-26 22:17:00,39.6,29.5,30.35,NNW,344,0.0,2.0,67,0.00,,,0.00,meteohub,2013-03-27 03:17:00,
2013-03-26 22:22:00,39.4,28.9,30.35,NNW,344,0.0,2.0,66,0.00,,,0.00,meteohub,2013-03-27 03:22:00,
2013-03-26 22:27:00,39.4,29.3,30.36,NNW,348,0.0,2.0,67,0.00,,,0.00,meteohub,2013-03-27 03:27:00,
2013-03-26 22:32:00,39.0,28.9,30.36,NNW,348,0.0,2.0,67,0.00,,,0.00,meteohub,2013-03-27 03:32:00,
2013-03-26 22:37:00,39.0,28.9,30.36,NNE,13,2.0,2.0,67,0.00,,,0.00,meteohub,2013-03-27 03:37:00,
2013-03-26 22:42:00,39.0,28.9,30.36,ENE,60,1.0,2.0,67,0.00,,,0.00,meteohub,2013-03-27 03:42:00,
2013-03-26 22:48:00,39.0,28.9,30.36,ENE,60,0.0,2.0,67,0.00,,,0.00,meteohub,2013-03-27 03:48:00,
2013-03-26 22:53:00,38.8,28.8,30.36,ENE,60,0.0,2.0,67,0.00,,,0.00,meteohub,2013-03-27 03:53:00,
2013-03-26 22:58:00,38.8,28.8,30.36,NNW,339,2.0,3.0,67,0.00,,,0.00,meteohub,2013-03-27 03:58:00,
2013-03-26 23:00:00,38.8,28.8,30.36,NNW,346,0.0,3.0,67,0.00,,,0.00,meteohub,2013-03-27 04:00:00,
2013-03-26 23:01:00,38.8,28.8,30.36,NNW,346,0.0,4.0,67,0.00,,,0.00,meteohub,2013-03-27 04:01:00,
2013-03-26 23:02:00,38.8,28.8,30.36,NNW,346,0.0,4.0,67,0.00,,,0.00,meteohub,2013-03-27 04:02:00,
2013-03-26 23:07:00,38.5,28.4,30.36,North,8,0.0,4.0,67,0.00,,,0.00,meteohub,2013-03-27 04:07:00,
2013-03-26 23:12:00,38.5,28.8,30.36,North,8,1.0,4.0,68,0.00,,,0.00,meteohub,2013-03-27 04:12:00,
2013-03-26 23:18:00,38.1,28.6,30.36,North,8,0.0,3.0,68,0.00,,,0.00,meteohub,2013-03-27 04:18:00,
2013-03-26 23:23:00,37.9,28.4,30.36,North,8,0.0,3.0,68,0.00,,,0.00,meteohub,2013-03-27 04:23:00,
2013-03-26 23:28:00,37.8,28.6,30.36,North,8,0.0,2.0,69,0.00,,,0.00,meteohub,2013-03-27 04:28:00,
2013-03-26 23:33:00,37.6,28.8,30.36,North,8,0.0,1.0,70,0.00,,,0.00,meteohub,2013-03-27 04:33:00,
2013-03-26 23:38:00,37.2,28.8,30.36,North,8,0.0,0.0,71,0.00,,,0.00,meteohub,2013-03-27 04:38:00,
2013-03-26 23:43:00,37.0,28.6,30.36,North,8,0.0,0.0,71,0.00,,,0.00,meteohub,2013-03-27 04:43:00,
2013-03-26 23:49:00,36.9,28.8,30.36,North,8,0.0,0.0,72,0.00,,,0.00,meteohub,2013-03-27 04:49:00,
2013-03-26 23:54:00,36.9,28.8,30.36,North,8,0.0,0.0,72,0.00,,,0.00,meteohub,2013-03-27 04:54:00,
2013-03-26 23:59:00,36.9,28.8,30.36,North,8,0.0,1.0,72,0.00,,,0.00,meteohub,2013-03-27 04:59:00,